When you browse on this site, cookies collect data to enhance your experience and personalize the content and advertising you see.
Visit our Privacy Policy to learn more. By continuing to use the site, you agree to this use of cookies and data.
  • In Czech Republic
  • List of Countries
  • For 7 days
  • Water Temperature
  • Satellite Maps
  • Weather Map
  • Weather Widgets
  • user-avatar
    Login

    Hourly Weather Tamale

    Today, 16 July, Tuesday

    Time Temperature Precipitation Wind Pressure Humidity
    00:00 +24°C° 0 mm 1 mps 742 mmHg 94%
    01:00 +24°C° 0 mm 1 mps 742 mmHg 94%
    02:00 +23°C° 0 mm 1 mps 742 mmHg 94%
    03:00 +23°C° 0 mm 1 mps 741 mmHg 94%
    04:00 +23°C° 0 mm 1 mps 742 mmHg 94%
    05:00 +23°C° 0 mm 1 mps 742 mmHg 93%
    06:00 +21°C° 0 mm 0 mps 743 mmHg 92%
    07:00 +25°C° 0 mm 1 mps 743 mmHg 88%
    08:00 +26°C° 0 mm 1 mps 744 mmHg 83%
    09:00 +27°C° 0 mm 1 mps 744 mmHg 79%
    10:00 +28°C° 0 mm 2 mps 744 mmHg 74%
    11:00 +30°C° 0 mm 2 mps 744 mmHg 68%
    12:00 +31°C° 0 mm 3 mps 744 mmHg 62%
    13:00 +31°C° 0.1 mm 3 mps 743 mmHg 62%
    14:00 +31°C° 0.1 mm 3 mps 742 mmHg 62%
    15:00 +32°C° 0.1 mm 2 mps 741 mmHg 62%
    16:00 +30°C° 0.4 mm 2 mps 742 mmHg 70%
    17:00 +29°C° 0.4 mm 2 mps 742 mmHg 78%
    18:00 +27°C° 0.4 mm 2 mps 742 mmHg 86%
    19:00 +27°C° 0 mm 1 mps 742 mmHg 88%
    20:00 +26°C° 0 mm 1 mps 743 mmHg 90%
    21:00 +25°C° 0 mm 1 mps 744 mmHg 92%
    22:00 +25°C° 0 mm 1 mps 744 mmHg 92%
    23:00 +25°C° 0 mm 1 mps 744 mmHg 92%

    Tomorrow, 17 July, Wednesday

    Time Temperature Precipitation Wind Pressure Humidity
    00:00 +25°C° 0 mm 1 mps 744 mmHg 92%
    01:00 +25°C° 0 mm 1 mps 744 mmHg 92%
    02:00 +25°C° 0 mm 1 mps 744 mmHg 92%
    03:00 +24°C° 0 mm 1 mps 744 mmHg 92%
    04:00 +24°C° 0 mm 1 mps 744 mmHg 92%
    05:00 +24°C° 0 mm 1 mps 744 mmHg 92%
    06:00 +24°C° 0 mm 1 mps 744 mmHg 92%
    07:00 +26°C° 0 mm 2 mps 745 mmHg 87%
    08:00 +27°C° 0 mm 3 mps 745 mmHg 81%
    09:00 +28°C° 0 mm 3 mps 746 mmHg 76%
    10:00 +30°C° 0 mm 3 mps 745 mmHg 71%
    11:00 +31°C° 0 mm 3 mps 745 mmHg 67%
    12:00 +33°C° 0 mm 3 mps 744 mmHg 62%
    13:00 +33°C° 0 mm 3 mps 743 mmHg 60%
    14:00 +34°C° 0 mm 3 mps 743 mmHg 59%
    15:00 +34°C° 0 mm 3 mps 742 mmHg 58%
    16:00 +32°C° 0 mm 2 mps 742 mmHg 62%
    17:00 +31°C° 0 mm 2 mps 742 mmHg 67%
    18:00 +30°C° 0 mm 2 mps 742 mmHg 72%
    19:00 +29°C° 0 mm 2 mps 742 mmHg 74%
    20:00 +28°C° 0 mm 2 mps 742 mmHg 77%
    21:00 +27°C° 0 mm 2 mps 743 mmHg 79%
    22:00 +27°C° 0.1 mm 2 mps 743 mmHg 82%
    23:00 +26°C° 0.1 mm 2 mps 743 mmHg 84%

    Day after tomorrow, 18 July, Thursday

    Time Temperature Precipitation Wind Pressure Humidity
    00:00 +26°C° 0.1 mm 1 mps 743 mmHg 86%
    01:00 +25°C° 1.2 mm 2 mps 742 mmHg 90%
    02:00 +25°C° 1.2 mm 2 mps 742 mmHg 93%
    03:00 +24°C° 1.2 mm 2 mps 742 mmHg 96%
    04:00 +24°C° 0.8 mm 2 mps 742 mmHg 96%
    05:00 +24°C° 0.8 mm 2 mps 743 mmHg 96%
    06:00 +24°C° 0.8 mm 2 mps 743 mmHg 96%
    07:00 +24°C° 1.8 mm 2 mps 744 mmHg 96%
    08:00 +25°C° 1.8 mm 2 mps 744 mmHg 96%
    09:00 +25°C° 1.8 mm 2 mps 745 mmHg 96%
    10:00 +25°C° 0.6 mm 2 mps 744 mmHg 96%
    11:00 +25°C° 0.6 mm 3 mps 744 mmHg 95%
    12:00 +25°C° 0.6 mm 3 mps 744 mmHg 94%
    13:00 +26°C° 0.1 mm 3 mps 743 mmHg 90%
    14:00 +27°C° 0.1 mm 3 mps 742 mmHg 86%
    15:00 +28°C° 0.1 mm 3 mps 741 mmHg 82%
    16:00 +27°C° 0 mm 3 mps 741 mmHg 83%
    17:00 +27°C° 0 mm 2 mps 741 mmHg 85%
    18:00 +27°C° 0 mm 2 mps 741 mmHg 86%
    19:00 +26°C° 0 mm 1 mps 742 mmHg 89%
    20:00 +25°C° 0 mm 1 mps 742 mmHg 92%
    21:00 +24°C° 0 mm 1 mps 743 mmHg 96%
    22:00 +24°C° 0 mm 1 mps 743 mmHg 96%
    23:00 +24°C° 0 mm 1 mps 743 mmHg 97%

    19 July, Friday

    Time Temperature Precipitation Wind Pressure Humidity
    00:00 +24°C° 0 mm 1 mps 743 mmHg 97%
    01:00 +24°C° 0 mm 1 mps 743 mmHg 97%
    02:00 +24°C° 0 mm 1 mps 743 mmHg 97%
    03:00 +24°C° 0 mm 1 mps 743 mmHg 96%
    04:00 +24°C° 0 mm 1 mps 743 mmHg 96%
    05:00 +24°C° 0 mm 1 mps 743 mmHg 96%
    06:00 +24°C° 0 mm 1 mps 743 mmHg 96%
    07:00 +25°C° 0 mm 2 mps 744 mmHg 90%
    08:00 +26°C° 0 mm 3 mps 744 mmHg 85%
    09:00 +28°C° 0 mm 3 mps 745 mmHg 80%
    10:00 +28°C° 0.7 mm 3 mps 744 mmHg 80%
    11:00 +28°C° 0.7 mm 3 mps 744 mmHg 80%
    12:00 +29°C° 0.7 mm 2 mps 744 mmHg 80%
    13:00 +28°C° 3.6 mm 2 mps 744 mmHg 85%
    14:00 +27°C° 3.6 mm 1 mps 743 mmHg 90%
    15:00 +24°C° 3.6 mm 0 mps 743 mmHg 95%
    16:00 +25°C° 0.6 mm 1 mps 742 mmHg 95%
    17:00 +25°C° 0.6 mm 1 mps 742 mmHg 96%
    18:00 +25°C° 0.6 mm 1 mps 742 mmHg 96%
    19:00 +25°C° 0 mm 1 mps 742 mmHg 96%
    20:00 +24°C° 0 mm 1 mps 743 mmHg 97%
    21:00 +24°C° 0 mm 1 mps 743 mmHg 97%
    22:00 +24°C° 0.2 mm 1 mps 744 mmHg 97%
    23:00 +24°C° 0.2 mm 1 mps 744 mmHg 97%

    20 July, Saturday

    Time Temperature Precipitation Wind Pressure Humidity
    00:00 +24°C° 0.2 mm 1 mps 744 mmHg 96%
    01:00 +24°C° 0.2 mm 1 mps 744 mmHg 97%
    02:00 +24°C° 0.2 mm 2 mps 743 mmHg 97%
    03:00 +24°C° 0.2 mm 2 mps 743 mmHg 97%
    04:00 +24°C° 0 mm 2 mps 743 mmHg 97%
    05:00 +24°C° 0 mm 2 mps 743 mmHg 97%
    06:00 +24°C° 0 mm 2 mps 744 mmHg 97%
    07:00 +24°C° 0.1 mm 2 mps 744 mmHg 95%
    08:00 +24°C° 0.1 mm 2 mps 745 mmHg 94%
    09:00 +25°C° 0.1 mm 2 mps 746 mmHg 93%
    10:00 +25°C° 0.5 mm 2 mps 745 mmHg 93%
    11:00 +25°C° 0.5 mm 1 mps 745 mmHg 94%
    12:00 +25°C° 0.5 mm 1 mps 745 mmHg 94%
    13:00 +24°C° 1.1 mm 1 mps 745 mmHg 95%
    14:00 +24°C° 1.1 mm 1 mps 744 mmHg 95%
    15:00 +24°C° 1.1 mm 1 mps 744 mmHg 96%
    16:00 +24°C° 0.4 mm 1 mps 743 mmHg 96%
    17:00 +24°C° 0.4 mm 1 mps 743 mmHg 96%
    18:00 +24°C° 0.4 mm 1 mps 742 mmHg 96%
    19:00 +24°C° 0 mm 1 mps 743 mmHg 96%
    20:00 +24°C° 0 mm 2 mps 743 mmHg 97%
    21:00 +23°C° 0 mm 2 mps 743 mmHg 98%
    22:00 +23°C° 0 mm 1 mps 744 mmHg 97%
    23:00 +23°C° 0 mm 1 mps 744 mmHg 97%

    21 July, Sunday

    Time Temperature Precipitation Wind Pressure Humidity
    00:00 +21°C° 0 mm 0 mps 744 mmHg 97%
    01:00 +21°C° 0 mm 0 mps 744 mmHg 97%
    02:00 +21°C° 0 mm 0 mps 743 mmHg 97%
    03:00 +21°C° 0 mm 0 mps 743 mmHg 97%
    04:00 +21°C° 0 mm 0 mps 743 mmHg 97%
    05:00 +21°C° 0 mm 0 mps 744 mmHg 97%
    06:00 +21°C° 0 mm 0 mps 744 mmHg 97%
    07:00 +24°C° 0 mm 1 mps 744 mmHg 94%
    08:00 +25°C° 0 mm 1 mps 745 mmHg 91%
    09:00 +26°C° 0 mm 1 mps 745 mmHg 87%
    10:00 +27°C° 0.2 mm 1 mps 745 mmHg 82%
    11:00 +29°C° 0.2 mm 2 mps 744 mmHg 77%
    12:00 +30°C° 0.2 mm 2 mps 744 mmHg 72%
    13:00 +30°C° 0.7 mm 2 mps 743 mmHg 73%
    14:00 +30°C° 0.7 mm 3 mps 743 mmHg 73%
    15:00 +30°C° 0.7 mm 3 mps 742 mmHg 74%
    16:00 +29°C° 0.7 mm 2 mps 742 mmHg 80%
    17:00 +28°C° 0.7 mm 2 mps 742 mmHg 85%
    18:00 +27°C° 0.7 mm 2 mps 742 mmHg 90%
    19:00 +26°C° 0 mm 2 mps 742 mmHg 92%
    20:00 +25°C° 0 mm 1 mps 743 mmHg 94%
    21:00 +25°C° 0 mm 1 mps 743 mmHg 96%
    22:00 +25°C° 0.1 mm 1 mps 743 mmHg 97%
    23:00 +24°C° 0.1 mm 1 mps 743 mmHg 97%
    Show more